Location: Tamazert
(32.6352°N, 5.2072°W)
Time: 04:41:30
(UTC+00:00)

Vanguard 2 - Pass Details

Date: 05 October 2022
Orbit: 553 x 2933 km, 32.9° (Epoch: 26 November)

Event Time Altitude Azimuth Distance (km) Brightness Sun altitude
Rises 09:12:26 0° 181° (S) 3,519 11.3 33.8°
Reaches altitude 10° 09:16:47 10° 150° (SSE) 3,023 11.7 34.6°
Maximum altitude 09:19:28 12° 129° (SE) 3,146 12.2 35.0°
Drops below altitude 10° 09:22:33 10° 109° (ESE) 3,631 12.2 35.6°
Sets 09:29:17 0° 83° (E) 5,292 12.4 36.7°
